Regional Weather Roundup
Issued by NWS

Home | Current Version | Previous Version | Graphics & Text | Print | Product List | Glossary On
Versions: 1 2 3 4 5 6 7 8 9 10 11 12 13 14 15 16 17 18 19 20 21 22 23 24 25 26 27 28 29 30 31 32 33 34 35 36 37 38 39 40 41 42 43 44 45 46 47 48 49 50
000
ASUS43 KBIS 042101
RWRND

NORTH DAKOTA REGIONAL WEATHER ROUNDUP
NATIONAL WEATHER SERVICE BISMARCK ND
400 PM CDT MON MAY 04 2015

NOTE: "FAIR" INDICATES FEW OR NO CLOUDS BELOW 12,000 FEET WITH NO
SIGNIFICANT WEATHER AND/OR OBSTRUCTIONS TO VISIBILITY.


NDZ001>003-009>011-017-042200-
NORTHWEST NORTH DAKOTA

CITY           SKY/WX    TMP DP  RH WIND       PRES   REMARKS
WILLISTON      SUNNY     73  29  19 SE15G22   30.05F
MINOT          SUNNY     70  24  17 SE9       30.11F
MINOT AFB      SUNNY     71  26  18 SE15      30.10F
$$

NDZ018>021-031>035-040>046-042200-
SOUTHWEST NORTH DAKOTA

CITY           SKY/WX    TMP DP  RH WIND       PRES   REMARKS
BISMARCK       SUNNY     69  25  19 SE14      30.17F
DICKINSON      SUNNY     63  36  36 S23G35    30.11F
GARRISON         N/A     70  27  20 S13       30.12F
HETTINGER ARPT CLOUDY    58  37  45 S25       30.17F
$$

NDZ004>008-012>016-024-026-027-054-042200-
NORTHEAST NORTH DAKOTA

CITY           SKY/WX    TMP DP  RH WIND       PRES   REMARKS
GRAND FORKS    MOSUNNY   69  26  20 N7        30.18F
GRND FRKS AFB  SUNNY     68  26  20 VRB2      30.18F
DEVILS LAKE    SUNNY     64  25  22 SW7       30.17F
$$

NDZ022-023-025-028>030-036>039-047>053-042200-
SOUTHEAST NORTH DAKOTA

CITY           SKY/WX    TMP DP  RH WIND       PRES   REMARKS
FARGO          MOSUNNY   69  27  20 CALM      30.18F
JAMESTOWN      MOSUNNY   68  25  19 N7        30.17F
$$



USA.gov is the U.S. government's official web portal to all federal, state and local government web resources and services.